200 serials | incredimail 2.5 registration code

Date Name Success Rate
2011-09-08 10:56:11 FontLook v3.1 Registration Code 86%
2011-09-08 11:42:43 Nic O'Matic 1.6 Registration Code 50%
2011-09-08 11:42:43 Nic O'Matic v1.6 Registration Code 55%
2011-09-08 12:54:14 TimeSlips 10.5 enterprise - with registration code! 0%
2012-12-13 05:12:00 Registration Code For PDFZilla Giveaway 0%
2012-12-13 05:12:00 Registration code:-826510-16101-266644 55%
2011-09-08 10:42:09 DAS Registration 1.5.2 69%
2011-09-08 10:42:09 DAS Registration For CW5 0%
2011-09-08 10:42:09 DAS Registration v1.5.2 0%
2009-10-17 06:27:02 Lazarus Registration DLL V1.0 59%
2009-10-22 23:48:48 MemoriesonTV Registration 0%
2009-10-22 23:49:42 Registration Wizard 40%
2011-09-08 10:06:47 AnetHelpTool v4.02 Registration 60%
2011-09-08 10:22:13 ByeLines Registration 60%
2011-09-08 10:57:42 Ftgate Registration 63%
2011-09-08 11:15:16 Infodex v2.10 Registration 0%
2011-09-08 11:25:08 Lazarus Registration DLL v1.0 0%
2011-09-08 11:27:46 Mac Opener v3.0 Registration 57%
2011-09-08 11:32:59 mIRC v4.5+ Registration 60%
2011-09-08 11:32:59 mIRC v4.52 Registration 60%
2011-09-08 12:37:02 Quant v2.0 Registration 0%
2011-09-08 12:41:14 Registration Suite 1.0 60%
2011-09-08 12:41:14 Registration Suite v1.0 60%
2011-09-08 12:41:14 Registration Wizard Pro 5.01 46%
2011-09-08 12:41:14 Registration Wizard Pro v5.01 60%
2011-09-08 13:18:59 WinHacker 95 v2.02 Registration 57%
2012-12-13 05:12:00 Registration Key : 526EFEF086E09600449E667EA2DAE8E2E6D642BC 83%
2009-10-22 23:48:16 Incredimail Xe 0%
2011-09-08 11:15:09 IncrediMail XE 100%
2012-12-12 15:30:16 Incredimail 2 0%
2012-12-12 15:30:20 Incredimail Plus 0%
2009-10-22 23:27:21 Ardamax Keylogger 2.9 Registration 56%
2009-10-22 23:48:49 Microsoft Registration Hacker - 39%
2009-10-22 23:49:57 SoudForge ALL (No Registration Requiered) 0%
2009-10-22 23:50:26 Valve's Registration Armor Key-Gen 60%
2011-09-08 10:21:42 Browserola v1.01 Temp. Registration 0%
2011-09-08 11:31:51 Microsoft Registration Hacker 0%
2011-09-08 11:31:51 Microsoft Registration Hacker - 0%
2011-09-08 11:31:51 Microsoft Registration HackerMSREGHACK 0%
2011-09-08 11:32:07 Microstation v5.xx.xx & 95 FULL REGISTRATION 48%
2011-09-08 12:34:57 PolyTrans V1.2E Registration Activator CD-Key 62%
2011-09-08 12:34:57 PolyView v2.9b16 Registration 0%
2011-09-08 12:54:09 Time Registration (German) 1.10 0%
2011-09-08 12:59:30 Super Collapse Registration 100%
2011-09-08 13:23:15 Yipe! II for Windows Registration #154 0%
2012-12-13 08:49:53 Softwarenetz Time Registration v1.10 0%
2012-12-13 08:49:56 Softwarenetz Time Registration v1.14 0%
2012-12-13 15:34:10 Valve's Registration Armor Key-Gen 0%
2009-10-17 06:22:21 EZ IncrediMail Backup Pro V2.0 21%
2009-10-17 06:22:21 EZ IncrediMail Backup V1.2 20%
2009-10-22 23:47:43 EZ IncrediMail Backup 1.2.1 0%
2009-10-22 23:47:43 EZ IncrediMail Backup Pro 2.0 0%
2009-10-22 23:48:16 IncrediMail Premium 14%
2009-10-22 23:48:16 IncrediMail System 100%
2009-10-22 23:48:16 IncrediMail XE 5653054 0%
2009-10-22 23:48:16 IncrediMail Xe Build 884 100%
2009-10-22 23:48:16 IncrediMail XE814 0%
2011-09-08 10:50:54 EZ IncrediMail Backup 1.2.1 0%
2011-09-08 10:50:54 EZ IncrediMail Backup Pro 2.0 0%
2011-09-08 10:50:54 EZ IncrediMail Backup Pro v2.0 0%
2011-09-08 10:50:54 EZ IncrediMail Backup v1.2 0%
2011-09-08 10:50:54 EZ IncrediMail Backup v1.2.1 0%
2011-09-08 10:50:54 EZ IncrediMail Backup v1.21 0%
2011-09-08 11:15:09 Incredimail 1800775 0%
2011-09-08 11:15:09 IncrediMail Backup PRO 2.3 0%
2011-09-08 11:15:09 Incredimail LetterCreator 0%
2011-09-08 11:15:09 IncrediMail Premium 0%
2011-09-08 11:15:09 IncrediMail Xe Build 532 100%
2011-09-08 11:15:09 IncrediMail Xe Build 884 0%
2009-10-22 23:48:17 Internet Download Manager Registration 50%
2011-09-08 10:25:56 Cheyenne Bitware V4.0 Registration Number 60%
2011-09-08 11:31:51 Microsoft Registration Hacker MSREGHACK 80%
2011-09-08 11:31:51 Microsoft Visual Basic 5 registration cd key 72%
2012-12-12 08:07:32 Download avast 5.0.667 Antivirus registration 0%
2012-12-13 05:12:00 Registration key for x-3gp-video-converter-38540 54%
2012-12-13 13:12:40 Total Image Converter Registration Key 57%
2009-10-17 06:22:21 EZ IncrediMail Backup Premium V3.0 96%
2009-10-22 23:47:43 EZ IncrediMail Backup Premium V3.0 0%
2009-10-22 23:48:16 IncrediMail Letter Creator 47%
2009-10-22 23:48:16 Incredimail XE Build 3001613 0%
2009-10-22 23:48:16 IncrediMail XE Built 3001613 0%
2009-10-22 23:49:43 Rinjanisoft EZ IncrediMail Backup 1.2 0%
2009-10-22 23:50:00 Static IncrediMail Backup V2.6 30%
2009-10-22 23:50:00 Static IncrediMail Backup V2.9 0%
2011-09-08 10:50:54 EZ IncrediMail Backup Premium 3.0 0%
2011-09-08 10:50:54 EZ IncrediMail Backup v1.2.1 by REVENGE 0%
2011-09-08 11:15:09 IncrediMail Xe Build 1358 0%
2011-09-08 11:15:09 IncrediMail Xe Build 1361 0%
2011-09-08 11:15:09 IncrediMail Xe Build 1452 0%
2011-09-08 11:15:09 IncrediMail Xe Build 1579 0%
2011-09-08 11:15:09 IncrediMail Xe Build 1788 0%
2011-09-08 11:15:09 IncrediMail XE Build 1850884 0%
2011-09-08 11:15:09 IncrediMail Xe Build 1888 0%
2011-09-08 11:15:09 Incredimail XE Build 3001613 0%
2011-09-08 11:15:09 Incredimail Xe Premium Build 908 100%
2011-09-08 12:43:36 Rinjanisoft EZ IncrediMail Backup 1.2 0%
2011-09-08 12:43:36 Rinjanisoft EZ IncrediMail Backup v1.2 by FFF 0%
2011-09-08 12:58:27 Static IncrediMail Backup 2.6a 0%
2011-09-08 11:30:16 MediaBlaze 98 v1.01 Win95/NT User: delphic Registration 0%
2009-10-17 06:31:33 RinjaniSoft EZ Backup IncrediMail Premium V4.0 0%
2009-10-17 06:31:33 RinjaniSoft EZ Backup IncrediMail Premium V4.2 0%
2009-10-17 06:31:33 RinjaniSoft EZ Backup IncrediMail Premium V4.6 0%
2009-10-17 06:31:33 RinjaniSoft EZ Backup IncrediMail Premium V4.7-CFF 0%
2009-10-17 06:31:33 RinjaniSoft EZ IncrediMail Backup Premium V3.0 0%
2009-10-17 06:31:33 RinjaniSoft Presto IncrediMail Transfer V1.3 0%
2009-10-17 06:31:33 RinjaniSoft Presto Transfer IncrediMail V1.6 0%
2009-10-17 06:31:33 RinjaniSoft Presto Transfer IncrediMail V1.7b 0%
2009-10-17 06:31:33 RinjaniSoft Presto Transfer IncrediMail V1.7b-CFF 0%
2009-10-17 06:32:40 Static IncrediMail Backup V2.6a KeyMaker 0%
2009-10-22 23:49:43 RinjaniSoft EZ IncrediMail Backup Premium V3.0 0%
2009-10-22 23:49:02 Norton Internet Security 2005 Registration Guide 0%
2011-09-08 09:58:40 Acoustica Mixcraft v1.10 Build 15 Registration Info by MaBi 60%
2009-10-17 06:28:46 Nucleus Kernel IncrediMail Email Recovery V4.02 47%
2009-10-22 23:49:02 Nucleus Kernel IncrediMail Email Recovery V4.02 0%
2011-09-08 11:15:09 IncrediMail Xe Premium v3.5.0 Build 1710 Gold 100%
2012-12-12 19:40:26 Microsoft Visual Basic 2008 Express Edition Registration key 20%
2009-10-17 06:19:27 Bar Code Pro V6.02 48%
2009-10-17 06:20:25 Code Co-op V4.5c 39%
2009-10-17 06:20:25 Code VBA V2.0 41%
2009-10-17 06:20:25 CODE-VB V3.03 23%
2009-10-22 23:44:48 Bar Code 128 3.0 0%
2009-10-22 23:44:48 Bar Code 3 Of 9 2.7 0%
2009-10-22 23:44:48 Bar Code 3 Of 9 3.0b 0%
2009-10-22 23:44:48 Bar Code Pro V6.02 0%
2009-10-22 23:44:48 Bar Code Pro V6.11 0%
2009-10-22 23:45:53 Code Co-op 4.0h 27%
2009-10-22 23:45:53 Code Co-op 4.1 44%
2009-10-22 23:45:53 Code Co-op 4.1a 0%
2009-10-22 23:45:53 Code Co-op 4.2 0%
2011-09-08 10:18:52 Bar Code Pro UPC v1.0 mac 54%
2011-09-08 10:18:52 Bar Code 3 of 9 v3.0b 0%
2011-09-08 10:18:52 Bar Code Pro 6.02 0%
2011-09-08 10:18:52 Bar Code 3 of 9 v2.7 0%
2011-09-08 10:18:52 Bar Code 3 of 9 3.0b 0%
2011-09-08 10:18:48 Bar Code 128 v3.0 0%
2011-09-08 10:18:48 Bar Code 3 of 9 2.7 55%
2011-09-08 10:18:48 Bar Code 128 3.0 0%
2011-09-08 10:27:32 Code 55%
2011-09-08 10:27:32 Code co-op 3.1 0%
2011-09-08 10:27:32 Code Co-Op 3.3b 0%
2011-09-08 10:27:32 Code Co-op 4.0h 0%
2011-09-08 10:27:32 Code Co-op 4.1 60%
2011-09-08 10:27:32 Code Co-op 4.1a 0%
2011-09-08 10:27:32 Code Co-op 4.2 57%
2011-09-08 10:27:32 Code Co-op 4.5c 55%
2011-09-08 10:27:32 Code co-op v3.1 0%
2011-09-08 10:27:32 Code Co-Op v3.3b 61%
2011-09-08 10:27:32 Code Co-op v4.1 0%
2011-09-08 10:27:32 Code Co-op v4.2 0%
2011-09-08 10:27:32 Code Co-op v4.5c 40%
2011-09-08 10:27:36 Code VBA 2.0 0%
2011-09-08 10:27:36 Code Wiz 3.0 0%
2011-09-08 10:27:36 Code Wiz v3.0 0%
2011-09-08 10:27:36 CODE-VB 3.03 57%
2011-09-08 10:27:36 Code:law 0%
2011-09-08 10:46:43 EAN Bar Code 0%
2011-09-08 10:49:57 ESS Code 0%
2011-09-08 10:49:57 ESS Code v6.7 Win 0%
2011-09-08 10:49:57 ESS Code v7.7 and v7.8 53%
2011-09-08 10:49:57 ESS-Code 0%
2011-09-08 10:49:57 ESS-Code 7.x 0%
2011-09-08 10:49:57 ESS-Code v7.5 59%
2011-09-08 10:49:57 ESS-Code v7.x 0%
2011-09-08 10:49:57 ESS-CODE v7.x WIN 0%
2011-09-08 10:49:57 ESS-Code/32 v7.8 0%
2011-09-08 10:55:14 Fix It v1.0 Code 100%
2011-09-08 10:55:14 Fix-It v2.30 Reg Code 56%
2011-09-08 11:01:54 G-Code-It 3.0 0%
2011-09-08 11:01:54 G-Code-It v3.0 0%
2011-09-08 11:07:16 Hit-N-Run v1.4 Code 0%
2011-09-08 13:23:47 ZIP 95 v1.02 REG CODE 0%
2009-10-17 06:19:27 Bar Code Pro V6.11 MacOSX-ART 12%
2009-10-17 06:20:25 Code Visualizer V2.25 57%
2009-10-17 06:20:25 Code Visualizer V2.28 41%
2009-10-17 06:20:25 Code Visualizer V2.35 5%
2009-10-17 06:20:25 Code Visualizer V2.35 11%
2009-10-17 06:20:25 Code Visualizer V2.52 54%
2009-10-17 06:20:25 Code Visualizer V2.64 52%
2009-10-17 06:20:25 Code Visualizer V2.83 22%
2009-10-17 06:20:25 Code Visualizer V2.87 19%
2009-10-17 06:20:25 Code Visualizer V2.97 71%
2009-10-17 06:20:25 Code Visualizer V2.99 26%
2009-10-17 06:20:25 Code Visualizer V3.01 49%
2009-10-17 06:20:25 Code Visualizer V3.05 27%
2009-10-17 06:20:25 Code Visualizer V3.1 35%
2009-10-17 06:20:25 Code Visualizer V3.38 44%
2009-10-22 23:44:48 Bar Code Pro FileMaster V2.1 0%
2009-10-22 23:45:49 Camfrog Pro Code 74%
2009-10-22 23:45:53 Code Pro Evolution 6 62%
2009-10-22 23:45:53 Code Source 34%
2009-10-22 23:45:53 Code Vault 2.2 13%
2009-10-22 23:45:53 Code Visualizer V2.25 41%
2009-10-22 23:45:53 Code Visualizer V2.35 0%
2009-10-22 23:45:53 Code Visualizer V2.49 0%
2009-10-22 23:45:53 Code Visualizer V2.52 0%
2009-10-22 23:45:53 Code Visualizer V2.55 0%
2009-10-22 23:45:53 Code Visualizer V2.64 0%
2009-10-22 23:45:53 Code Visualizer V2.83 0%
2009-10-22 23:45:53 Code Visualizer V2.87 0%
2009-10-22 23:45:53 Code Visualizer V2.97 50%